contact:dominique.lefevre@mio.osupytheas.fr, maurice.libes@osupytheas.fr, didier.mallarino@osupytheas.fr
Project:EMSO http://www.emso-fr.org/EMSO-France
Depth: 2436.0 m
Title:EMSO Ligure Ouest : Data MII capteur MICROCAT
DateTime_Computer,Latitude,Longitude,Temperature,Conductivity,Pressure,DateTime_Instrument
DateTime_Computer,Latitude,Longitude,degC,S m-1,dbar,DateTime_Instrument
2021-08-22T00:00:19Z,42.805,6.029,13.3014,4.60029,2470.334,2021-8-22T02:01:39Z
2021-08-22T00:03:23Z,42.805,6.029,13.3006,4.60032,2470.343,2021-8-22T02:04:42Z
2021-08-22T00:06:26Z,42.805,6.029,13.3024,4.60028,2470.357,2021-8-22T02:07:45Z
2021-08-22T00:09:29Z,42.805,6.029,13.3009,4.60021,2470.334,2021-8-22T02:10:48Z
2021-08-22T00:12:32Z,42.805,6.029,13.2990,4.60025,2470.38,2021-8-22T02:13:51Z
2021-08-22T00:15:35Z,42.805,6.029,13.2995,4.60023,2470.343,2021-8-22T02:16:54Z
2021-08-22T00:18:38Z,42.805,6.029,13.3006,4.60036,2470.357,2021-8-22T02:19:57Z
2021-08-22T00:21:41Z,42.805,6.029,13.3011,4.60020,2470.357,2021-8-22T02:23:00Z
2021-08-22T00:24:44Z,42.805,6.029,13.2998,4.60039,2470.357,2021-8-22T02:26:04Z
2021-08-22T00:27:48Z,42.805,6.029,13.3014,4.60047,2470.31,2021-8-22T02:29:07Z
2021-08-22T00:30:51Z,42.805,6.029,13.3011,4.60035,2470.357,2021-8-22T02:32:10Z
2021-08-22T00:33:54Z,42.805,6.029,13.3000,4.60053,2470.343,2021-8-22T02:35:13Z
2021-08-22T00:36:57Z,42.805,6.029,13.3031,4.60032,2470.366,2021-8-22T02:38:16Z
2021-08-22T00:40:00Z,42.805,6.029,13.2999,4.60027,2470.32,2021-8-22T02:41:19Z
2021-08-22T00:43:03Z,42.805,6.029,13.2993,4.60022,2470.32,2021-8-22T02:44:22Z
2021-08-22T00:46:06Z,42.805,6.029,13.3009,4.60034,2470.32,2021-8-22T02:47:25Z
2021-08-22T00:49:09Z,42.805,6.029,13.3011,4.60029,2470.334,2021-8-22T02:50:28Z
2021-08-22T00:52:13Z,42.805,6.029,13.2999,4.60021,2470.32,2021-8-22T02:53:32Z
2021-08-22T00:55:16Z,42.805,6.029,13.3014,4.60029,2470.334,2021-8-22T02:56:35Z
2021-08-22T00:58:19Z,42.805,6.029,13.3019,4.60029,2470.32,2021-8-22T02:59:38Z
2021-08-22T01:01:22Z,42.805,6.029,13.3009,4.60031,2470.32,2021-8-22T03:02:41Z
2021-08-22T01:04:25Z,42.805,6.029,13.3004,4.60036,2470.334,2021-8-22T03:05:44Z
2021-08-22T01:07:28Z,42.805,6.029,13.3019,4.60035,2470.357,2021-8-22T03:08:47Z
2021-08-22T01:10:31Z,42.805,6.029,13.3004,4.60035,2470.31,2021-8-22T03:11:50Z
2021-08-22T01:13:34Z,42.805,6.029,13.3000,4.60022,2470.334,2021-8-22T03:14:53Z
2021-08-22T01:16:38Z,42.805,6.029,13.3016,4.60039,2470.357,2021-8-22T03:17:57Z
2021-08-22T01:19:41Z,42.805,6.029,13.3012,4.60024,2470.297,2021-8-22T03:21:00Z
2021-08-22T01:22:44Z,42.805,6.029,13.3025,4.60057,2470.31,2021-8-22T03:24:03Z
2021-08-22T01:25:47Z,42.805,6.029,13.3014,4.60025,2470.366,2021-8-22T03:27:06Z
2021-08-22T01:28:50Z,42.805,6.029,13.3031,4.60039,2470.343,2021-8-22T03:30:09Z
2021-08-22T01:31:53Z,42.805,6.029,13.3036,4.60022,2470.31,2021-8-22T03:33:12Z
2021-08-22T01:34:56Z,42.805,6.029,13.3049,4.60033,2470.297,2021-8-22T03:36:15Z
2021-08-22T01:37:59Z,42.805,6.029,13.3015,4.60033,2470.31,2021-8-22T03:39:18Z
2021-08-22T01:41:03Z,42.805,6.029,13.3010,4.60021,2470.297,2021-8-22T03:42:22Z
2021-08-22T01:44:06Z,42.805,6.029,13.3024,4.60026,2470.31,2021-8-22T03:45:25Z
2021-08-22T01:47:09Z,42.805,6.029,13.3018,4.60033,2470.297,2021-8-22T03:48:28Z
2021-08-22T01:50:12Z,42.805,6.029,13.3023,4.60016,2470.297,2021-8-22T03:51:31Z
2021-08-22T01:53:15Z,42.805,6.029,13.3019,4.60035,2470.334,2021-8-22T03:54:34Z
2021-08-22T01:56:18Z,42.805,6.029,13.3026,4.60021,2470.287,2021-8-22T03:57:37Z
2021-08-22T01:59:21Z,42.805,6.029,13.3014,4.60027,2470.297,2021-8-22T04:00:40Z
2021-08-22T02:02:24Z,42.805,6.029,13.3031,4.60033,2470.334,2021-8-22T04:03:43Z
2021-08-22T02:05:28Z,42.805,6.029,13.3020,4.60045,2470.31,2021-8-22T04:06:47Z
2021-08-22T02:08:31Z,42.805,6.029,13.3019,4.60024,2470.273,2021-8-22T04:09:50Z
2021-08-22T02:11:34Z,42.805,6.029,13.3009,4.60025,2470.297,2021-8-22T04:12:53Z
2021-08-22T02:14:37Z,42.805,6.029,13.3014,4.60019,2470.31,2021-8-22T04:15:56Z
2021-08-22T02:17:40Z,42.805,6.029,13.3021,4.60024,2470.273,2021-8-22T04:18:59Z
2021-08-22T02:20:43Z,42.805,6.029,13.3013,4.60029,2470.31,2021-8-22T04:22:02Z
2021-08-22T02:23:46Z,42.805,6.029,13.3026,4.60026,2470.32,2021-8-22T04:25:05Z
2021-08-22T02:26:49Z,42.805,6.029,13.3031,4.60024,2470.297,2021-8-22T04:28:08Z
2021-08-22T02:29:52Z,42.805,6.029,13.3013,4.60021,2470.343,2021-8-22T04:31:11Z
2021-08-22T02:32:56Z,42.805,6.029,13.3022,4.60019,2470.297,2021-8-22T04:34:15Z
2021-08-22T02:35:59Z,42.805,6.029,13.3038,4.60052,2470.38,2021-8-22T04:37:18Z
2021-08-22T02:39:02Z,42.805,6.029,13.3014,4.60035,2470.31,2021-8-22T04:40:21Z
2021-08-22T02:42:05Z,42.805,6.029,13.3033,4.60019,2470.334,2021-8-22T04:43:24Z
2021-08-22T02:45:08Z,42.805,6.029,13.3017,4.60031,2470.297,2021-8-22T04:46:27Z
2021-08-22T02:48:11Z,42.805,6.029,13.3027,4.60029,2470.334,2021-8-22T04:49:30Z
2021-08-22T02:51:14Z,42.805,6.029,13.3018,4.60023,2470.334,2021-8-22T04:52:33Z
2021-08-22T02:54:17Z,42.805,6.029,13.3015,4.60027,2470.297,2021-8-22T04:55:36Z
2021-08-22T02:57:21Z,42.805,6.029,13.3017,4.60029,2470.334,2021-8-22T04:58:40Z
2021-08-22T03:00:24Z,42.805,6.029,13.3011,4.60021,2470.32,2021-8-22T05:01:43Z
2021-08-22T03:03:27Z,42.805,6.029,13.3016,4.60024,2470.357,2021-8-22T05:04:46Z
2021-08-22T03:06:30Z,42.805,6.029,13.3019,4.60021,2470.347,2021-8-22T05:07:49Z
2021-08-22T03:09:33Z,42.805,6.029,13.3014,4.60034,2470.297,2021-8-22T05:10:52Z
2021-08-22T03:12:36Z,42.805,6.029,13.3025,4.60019,2470.38,2021-8-22T05:13:55Z
2021-08-22T03:15:39Z,42.805,6.029,13.3015,4.60025,2470.343,2021-8-22T05:16:58Z
2021-08-22T03:18:42Z,42.805,6.029,13.3030,4.60021,2470.366,2021-8-22T05:20:01Z
2021-08-22T03:21:46Z,42.805,6.029,13.3012,4.60031,2470.366,2021-8-22T05:23:05Z
2021-08-22T03:24:49Z,42.805,6.029,13.3032,4.60021,2470.357,2021-8-22T05:26:08Z
2021-08-22T03:27:52Z,42.805,6.029,13.3012,4.60026,2470.39,2021-8-22T05:29:11Z
2021-08-22T03:30:55Z,42.805,6.029,13.3023,4.60023,2470.38,2021-8-22T05:32:14Z
2021-08-22T03:33:58Z,42.805,6.029,13.3020,4.60024,2470.38,2021-8-22T05:35:17Z
2021-08-22T03:37:01Z,42.805,6.029,13.3019,4.60025,2470.334,2021-8-22T05:38:20Z
2021-08-22T03:40:04Z,42.805,6.029,13.3009,4.60026,2470.366,2021-8-22T05:41:23Z
2021-08-22T03:43:07Z,42.805,6.029,13.3013,4.60024,2470.343,2021-8-22T05:44:26Z
2021-08-22T03:46:11Z,42.805,6.029,13.3041,4.60026,2470.357,2021-8-22T05:47:30Z
2021-08-22T03:49:14Z,42.805,6.029,13.3026,4.60020,2470.343,2021-8-22T05:50:33Z
2021-08-22T03:52:17Z,42.805,6.029,13.3015,4.60024,2470.366,2021-8-22T05:53:36Z
2021-08-22T03:55:20Z,42.805,6.029,13.3017,4.60023,2470.413,2021-8-22T05:56:39Z
2021-08-22T03:58:23Z,42.805,6.029,13.3020,4.60021,2470.39,2021-8-22T05:59:42Z
2021-08-22T04:01:26Z,42.805,6.029,13.3009,4.60021,2470.39,2021-8-22T06:02:45Z
2021-08-22T04:04:29Z,42.805,6.029,13.3009,4.60016,2470.343,2021-8-22T06:05:48Z
2021-08-22T04:07:32Z,42.805,6.029,13.3023,4.60022,2470.427,2021-8-22T06:08:51Z
2021-08-22T04:10:36Z,42.805,6.029,13.3015,4.60020,2470.33,2021-8-22T06:11:55Z
2021-08-22T04:13:39Z,42.805,6.029,13.3023,4.60022,2470.38,2021-8-22T06:14:58Z
2021-08-22T04:16:42Z,42.805,6.029,13.3015,4.60024,2470.39,2021-8-22T06:18:01Z
2021-08-22T04:19:45Z,42.805,6.029,13.3029,4.60019,2470.343,2021-8-22T06:21:04Z
2021-08-22T04:22:48Z,42.805,6.029,13.3014,4.60021,2470.413,2021-8-22T06:24:07Z
2021-08-22T04:25:51Z,42.805,6.029,13.3014,4.60017,2470.39,2021-8-22T06:27:10Z
2021-08-22T04:28:54Z,42.805,6.029,13.3035,4.60018,2470.39,2021-8-22T06:30:13Z
2021-08-22T04:31:57Z,42.805,6.029,13.3012,4.60020,2470.39,2021-8-22T06:33:16Z
2021-08-22T04:35:01Z,42.805,6.029,13.3021,4.60020,2470.427,2021-8-22T06:36:20Z
2021-08-22T04:38:04Z,42.805,6.029,13.3034,4.60029,2470.404,2021-8-22T06:39:23Z
2021-08-22T04:41:07Z,42.805,6.029,13.3014,4.60024,2470.413,2021-8-22T06:42:26Z
2021-08-22T04:44:10Z,42.805,6.029,13.3021,4.60021,2470.39,2021-8-22T06:45:29Z
2021-08-22T04:47:13Z,42.805,6.029,13.3019,4.60026,2470.45,2021-8-22T06:48:32Z
2021-08-22T04:50:16Z,42.805,6.029,13.3024,4.60027,2470.46,2021-8-22T06:51:35Z
2021-08-22T04:53:19Z,42.805,6.029,13.3018,4.60031,2470.39,2021-8-22T06:54:38Z
2021-08-22T04:56:22Z,42.805,6.029,13.3013,4.60034,2470.39,2021-8-22T06:57:41Z
2021-08-22T04:59:25Z,42.805,6.029,13.3016,4.60024,2470.427,2021-8-22T07:00:45Z
2021-08-22T05:02:29Z,42.805,6.029,13.3029,4.60023,2470.404,2021-8-22T07:03:48Z
2021-08-22T05:05:32Z,42.805,6.029,13.3033,4.60038,2470.413,2021-8-22T07:06:51Z
2021-08-22T05:08:35Z,42.805,6.029,13.3025,4.60019,2470.427,2021-8-22T07:09:54Z
2021-08-22T05:11:38Z,42.805,6.029,13.3015,4.60026,2470.45,2021-8-22T07:12:57Z
2021-08-22T05:14:41Z,42.805,6.029,13.3022,4.60019,2470.474,2021-8-22T07:16:00Z
2021-08-22T05:17:44Z,42.805,6.029,13.3020,4.60031,2470.437,2021-8-22T07:19:03Z
2021-08-22T05:20:47Z,42.805,6.029,13.3019,4.60021,2470.437,2021-8-22T07:22:06Z
2021-08-22T05:23:50Z,42.805,6.029,13.3019,4.60029,2470.437,2021-8-22T07:25:09Z
2021-08-22T05:26:54Z,42.805,6.029,13.3030,4.60019,2470.427,2021-8-22T07:28:13Z
2021-08-22T05:29:57Z,42.805,6.029,13.3009,4.60023,2470.45,2021-8-22T07:31:16Z
2021-08-22T05:33:00Z,42.805,6.029,13.3024,4.60010,2470.413,2021-8-22T07:34:19Z
2021-08-22T05:36:03Z,42.805,6.029,13.3015,4.60025,2470.437,2021-8-22T07:37:22Z
2021-08-22T05:39:06Z,42.805,6.029,13.3011,4.60026,2470.474,2021-8-22T07:40:25Z
2021-08-22T05:42:09Z,42.805,6.029,13.3013,4.60018,2470.427,2021-8-22T07:43:28Z
2021-08-22T05:45:12Z,42.805,6.029,13.3017,4.60018,2470.437,2021-8-22T07:46:31Z
2021-08-22T05:48:15Z,42.805,6.029,13.3014,4.60025,2470.46,2021-8-22T07:49:34Z
2021-08-22T05:51:19Z,42.805,6.029,13.3014,4.60014,2470.45,2021-8-22T07:52:38Z
2021-08-22T05:54:22Z,42.805,6.029,13.3019,4.60021,2470.46,2021-8-22T07:55:41Z
2021-08-22T05:57:25Z,42.805,6.029,13.3025,4.60021,2470.46,2021-8-22T07:58:44Z
2021-08-22T06:00:28Z,42.805,6.029,13.3012,4.60021,2470.474,2021-8-22T08:01:47Z
2021-08-22T06:03:31Z,42.805,6.029,13.3013,4.60025,2470.483,2021-8-22T08:04:50Z
2021-08-22T06:06:34Z,42.805,6.029,13.3016,4.60020,2470.437,2021-8-22T08:07:53Z
2021-08-22T06:09:37Z,42.805,6.029,13.3011,4.60031,2470.497,2021-8-22T08:10:56Z
2021-08-22T06:12:40Z,42.805,6.029,13.3007,4.60024,2470.45,2021-8-22T08:13:59Z
2021-08-22T06:15:44Z,42.805,6.029,13.3021,4.60023,2470.46,2021-8-22T08:17:03Z
2021-08-22T06:18:47Z,42.805,6.029,13.3011,4.60023,2470.46,2021-8-22T08:20:06Z
2021-08-22T06:21:50Z,42.805,6.029,13.3017,4.60028,2470.46,2021-8-22T08:23:09Z
2021-08-22T06:24:53Z,42.805,6.029,13.3024,4.60024,2470.46,2021-8-22T08:26:12Z
2021-08-22T06:27:56Z,42.805,6.029,13.3012,4.60020,2470.483,2021-8-22T08:29:15Z
2021-08-22T06:30:59Z,42.805,6.029,13.3017,4.60017,2470.46,2021-8-22T08:32:18Z
2021-08-22T06:34:02Z,42.805,6.029,13.3015,4.60019,2470.474,2021-8-22T08:35:21Z
2021-08-22T06:37:05Z,42.805,6.029,13.3015,4.60024,2470.45,2021-8-22T08:38:24Z
2021-08-22T06:40:08Z,42.805,6.029,13.3011,4.60027,2470.45,2021-8-22T08:41:28Z
2021-08-22T06:43:12Z,42.805,6.029,13.3009,4.60016,2470.474,2021-8-22T08:44:31Z
2021-08-22T06:46:15Z,42.805,6.029,13.3014,4.60025,2470.437,2021-8-22T08:47:34Z
2021-08-22T06:49:18Z,42.805,6.029,13.3016,4.60019,2470.46,2021-8-22T08:50:37Z
2021-08-22T06:52:21Z,42.805,6.029,13.3025,4.60025,2470.474,2021-8-22T08:53:40Z
2021-08-22T06:55:24Z,42.805,6.029,13.3013,4.60021,2470.46,2021-8-22T08:56:43Z
2021-08-22T06:58:27Z,42.805,6.029,13.3007,4.60021,2470.474,2021-8-22T08:59:46Z
2021-08-22T07:01:30Z,42.805,6.029,13.3021,4.60023,2470.497,2021-8-22T09:02:49Z
2021-08-22T07:04:33Z,42.805,6.029,13.3019,4.60017,2470.45,2021-8-22T09:05:53Z
2021-08-22T07:07:37Z,42.805,6.029,13.3026,4.60019,2470.46,2021-8-22T09:08:56Z
2021-08-22T07:10:40Z,42.805,6.029,13.3015,4.60014,2470.45,2021-8-22T09:11:59Z
2021-08-22T07:13:43Z,42.805,6.029,13.3013,4.60015,2470.46,2021-8-22T09:15:02Z
2021-08-22T07:16:46Z,42.805,6.029,13.3015,4.60027,2470.483,2021-8-22T09:18:05Z
2021-08-22T07:19:49Z,42.805,6.029,13.3023,4.60022,2470.437,2021-8-22T09:21:08Z
2021-08-22T07:22:52Z,42.805,6.029,13.3020,4.60027,2470.413,2021-8-22T09:24:11Z
2021-08-22T07:25:55Z,42.805,6.029,13.3006,4.60024,2470.46,2021-8-22T09:27:14Z
2021-08-22T07:28:58Z,42.805,6.029,13.3011,4.60022,2470.437,2021-8-22T09:30:18Z
2021-08-22T07:32:02Z,42.805,6.029,13.3008,4.60022,2470.45,2021-8-22T09:33:21Z
2021-08-22T07:35:05Z,42.805,6.029,13.3016,4.60026,2470.437,2021-8-22T09:36:24Z
2021-08-22T07:38:08Z,42.805,6.029,13.3009,4.60025,2470.45,2021-8-22T09:39:27Z
2021-08-22T07:41:11Z,42.805,6.029,13.3015,4.60027,2470.474,2021-8-22T09:42:30Z
2021-08-22T07:44:14Z,42.805,6.029,13.3031,4.60024,2470.437,2021-8-22T09:45:33Z
2021-08-22T07:47:17Z,42.805,6.029,13.3019,4.60030,2470.46,2021-8-22T09:48:36Z
2021-08-22T07:50:20Z,42.805,6.029,13.3015,4.60027,2470.474,2021-8-22T09:51:39Z
2021-08-22T07:53:23Z,42.805,6.029,13.3011,4.60020,2470.437,2021-8-22T09:54:42Z
2021-08-22T07:56:27Z,42.805,6.029,13.3009,4.60019,2470.45,2021-8-22T09:57:46Z
2021-08-22T07:59:30Z,42.805,6.029,13.3011,4.60025,2470.474,2021-8-22T10:00:49Z
2021-08-22T08:02:33Z,42.805,6.029,13.3020,4.60029,2470.46,2021-8-22T10:03:52Z
2021-08-22T08:05:36Z,42.805,6.029,13.3007,4.60024,2470.437,2021-8-22T10:06:55Z
2021-08-22T08:08:39Z,42.805,6.029,13.3026,4.60022,2470.45,2021-8-22T10:09:58Z
2021-08-22T08:11:42Z,42.805,6.029,13.3012,4.60021,2470.437,2021-8-22T10:13:01Z
2021-08-22T08:14:45Z,42.805,6.029,13.3013,4.60036,2470.474,2021-8-22T10:16:04Z
2021-08-22T08:17:48Z,42.805,6.029,13.3014,4.60021,2470.45,2021-8-22T10:19:07Z
2021-08-22T08:20:52Z,42.805,6.029,13.3013,4.60029,2470.413,2021-8-22T10:22:11Z
2021-08-22T08:23:55Z,42.805,6.029,13.3019,4.60016,2470.413,2021-8-22T10:25:14Z
2021-08-22T08:26:58Z,42.805,6.029,13.3017,4.60026,2470.45,2021-8-22T10:28:17Z
2021-08-22T08:30:01Z,42.805,6.029,13.3012,4.60014,2470.427,2021-8-22T10:31:20Z
2021-08-22T08:33:04Z,42.805,6.029,13.3010,4.60028,2470.427,2021-8-22T10:34:23Z
2021-08-22T08:36:07Z,42.805,6.029,13.3012,4.60018,2470.45,2021-8-22T10:37:26Z
2021-08-22T08:39:10Z,42.805,6.029,13.3011,4.60021,2470.39,2021-8-22T10:40:29Z
2021-08-22T08:42:13Z,42.805,6.029,13.3006,4.60022,2470.437,2021-8-22T10:43:33Z
2021-08-22T08:45:17Z,42.805,6.029,13.3011,4.60023,2470.45,2021-8-22T10:46:36Z
2021-08-22T08:48:20Z,42.805,6.029,13.2998,4.60017,2470.427,2021-8-22T10:49:39Z
2021-08-22T08:51:23Z,42.805,6.029,13.3010,4.60019,2470.427,2021-8-22T10:52:42Z
2021-08-22T08:54:26Z,42.805,6.029,13.3004,4.60015,2470.404,2021-8-22T10:55:45Z
2021-08-22T08:57:29Z,42.805,6.029,13.3022,4.60019,2470.45,2021-8-22T10:58:48Z
2021-08-22T09:00:32Z,42.805,6.029,13.3008,4.60018,2470.427,2021-8-22T11:01:51Z
2021-08-22T09:03:35Z,42.805,6.029,13.3013,4.60019,2470.437,2021-8-22T11:04:54Z
2021-08-22T09:06:39Z,42.805,6.029,13.3010,4.60026,2470.413,2021-8-22T11:07:58Z
2021-08-22T09:09:42Z,42.805,6.029,13.3014,4.60017,2470.404,2021-8-22T11:11:01Z
2021-08-22T09:12:45Z,42.805,6.029,13.3020,4.60015,2470.437,2021-8-22T11:14:04Z
2021-08-22T09:15:48Z,42.805,6.029,13.3010,4.60019,2470.39,2021-8-22T11:17:07Z
2021-08-22T09:18:51Z,42.805,6.029,13.3009,4.60014,2470.39,2021-8-22T11:20:10Z
2021-08-22T09:21:54Z,42.805,6.029,13.3009,4.60017,2470.413,2021-8-22T11:23:13Z
2021-08-22T09:24:57Z,42.805,6.029,13.3021,4.60017,2470.404,2021-8-22T11:26:16Z
2021-08-22T09:28:00Z,42.805,6.029,13.3014,4.60011,2470.404,2021-8-22T11:29:19Z
2021-08-22T09:31:03Z,42.805,6.029,13.3004,4.60016,2470.413,2021-8-22T11:32:23Z
2021-08-22T09:34:07Z,42.805,6.029,13.3007,4.60021,2470.427,2021-8-22T11:35:26Z
2021-08-22T09:37:10Z,42.805,6.029,13.3011,4.60016,2470.404,2021-8-22T11:38:29Z
2021-08-22T09:40:13Z,42.805,6.029,13.3009,4.60015,2470.39,2021-8-22T11:41:32Z
2021-08-22T09:43:16Z,42.805,6.029,13.3010,4.60014,2470.404,2021-8-22T11:44:35Z
2021-08-22T09:46:19Z,42.805,6.029,13.3006,4.60019,2470.404,2021-8-22T11:47:38Z
2021-08-22T09:49:22Z,42.805,6.029,13.3009,4.60017,2470.404,2021-8-22T11:50:41Z
2021-08-22T09:52:25Z,42.805,6.029,13.3010,4.60015,2470.413,2021-8-22T11:53:44Z
2021-08-22T09:55:29Z,42.805,6.029,13.3009,4.60012,2470.38,2021-8-22T11:56:48Z
2021-08-22T09:58:32Z,42.805,6.029,13.3010,4.60021,2470.404,2021-8-22T11:59:51Z
2021-08-22T10:01:35Z,42.805,6.029,13.3009,4.60057,2470.366,2021-8-22T12:02:54Z
2021-08-22T10:04:38Z,42.805,6.029,13.3022,4.60021,2470.343,2021-8-22T12:05:57Z
2021-08-22T10:07:41Z,42.805,6.029,13.3010,4.60019,2470.357,2021-8-22T12:09:00Z
2021-08-22T10:10:44Z,42.805,6.029,13.3008,4.60014,2470.38,2021-8-22T12:12:03Z
2021-08-22T10:13:47Z,42.805,6.029,13.3006,4.60024,2470.366,2021-8-22T12:15:06Z
2021-08-22T10:16:50Z,42.805,6.029,13.3014,4.60022,2470.38,2021-8-22T12:18:09Z
2021-08-22T10:19:54Z,42.805,6.029,13.3011,4.60017,2470.357,2021-8-22T12:21:13Z
2021-08-22T10:22:57Z,42.805,6.029,13.3006,4.60014,2470.366,2021-8-22T12:24:16Z
2021-08-22T10:26:00Z,42.805,6.029,13.3013,4.60018,2470.357,2021-8-22T12:27:19Z
2021-08-22T10:29:03Z,42.805,6.029,13.3005,4.60020,2470.366,2021-8-22T12:30:22Z
2021-08-22T10:32:06Z,42.805,6.029,13.3011,4.60023,2470.32,2021-8-22T12:33:25Z
2021-08-22T10:35:09Z,42.805,6.029,13.3008,4.60026,2470.334,2021-8-22T12:36:28Z
2021-08-22T10:38:12Z,42.805,6.029,13.3015,4.60019,2470.343,2021-8-22T12:39:31Z
2021-08-22T10:41:15Z,42.805,6.029,13.3021,4.60023,2470.357,2021-8-22T12:42:34Z
2021-08-22T10:44:19Z,42.805,6.029,13.3006,4.60016,2470.343,2021-8-22T12:45:38Z
2021-08-22T10:47:22Z,42.805,6.029,13.3014,4.60019,2470.343,2021-8-22T12:48:41Z
2021-08-22T10:50:25Z,42.805,6.029,13.3003,4.60009,2470.32,2021-8-22T12:51:44Z
2021-08-22T10:53:28Z,42.805,6.029,13.3005,4.60015,2470.357,2021-8-22T12:54:47Z
2021-08-22T10:56:31Z,42.805,6.029,13.3004,4.60009,2470.357,2021-8-22T12:57:50Z
2021-08-22T10:59:34Z,42.805,6.029,13.3007,4.60011,2470.32,2021-8-22T13:00:53Z
2021-08-22T11:02:37Z,42.805,6.029,13.3002,4.60011,2470.32,2021-8-22T13:03:56Z
2021-08-22T11:05:40Z,42.805,6.029,13.3008,4.60016,2470.334,2021-8-22T13:06:59Z
2021-08-22T11:08:44Z,42.805,6.029,13.3004,4.60019,2470.334,2021-8-22T13:10:03Z
2021-08-22T11:11:47Z,42.805,6.029,13.3006,4.60019,2470.297,2021-8-22T13:13:06Z
2021-08-22T11:14:50Z,42.805,6.029,13.3000,4.60022,2470.31,2021-8-22T13:16:09Z
2021-08-22T11:17:53Z,42.805,6.029,13.3004,4.60019,2470.31,2021-8-22T13:19:12Z
2021-08-22T11:20:56Z,42.805,6.029,13.3020,4.60031,2470.334,2021-8-22T13:22:15Z
2021-08-22T11:23:59Z,42.805,6.029,13.3006,4.60031,2470.297,2021-8-22T13:25:18Z
2021-08-22T11:27:02Z,42.805,6.029,13.3004,4.60011,2470.297,2021-8-22T13:28:21Z
2021-08-22T11:30:05Z,42.805,6.029,13.3014,4.60016,2470.32,2021-8-22T13:31:25Z
2021-08-22T11:33:09Z,42.805,6.029,13.3013,4.60021,2470.334,2021-8-22T13:34:28Z
2021-08-22T11:36:12Z,42.805,6.029,13.3025,4.60057,2470.31,2021-8-22T13:37:31Z
2021-08-22T11:39:15Z,42.805,6.029,13.3012,4.60015,2470.297,2021-8-22T13:40:34Z
2021-08-22T11:42:18Z,42.805,6.029,13.3004,4.60013,2470.32,2021-8-22T13:43:37Z
2021-08-22T11:45:21Z,42.805,6.029,13.3014,4.60023,2470.334,2021-8-22T13:46:40Z
2021-08-22T11:48:24Z,42.805,6.029,13.3021,4.60034,2470.297,2021-8-22T13:49:43Z
2021-08-22T11:51:27Z,42.805,6.029,13.3003,4.60042,2470.273,2021-8-22T13:52:46Z
2021-08-22T11:54:30Z,42.805,6.029,13.3014,4.60033,2470.264,2021-8-22T13:55:50Z
2021-08-22T11:57:34Z,42.805,6.029,13.3007,4.60035,2470.287,2021-8-22T13:58:53Z
2021-08-22T12:00:37Z,42.805,6.029,13.3009,4.60039,2470.31,2021-8-22T14:01:56Z
2021-08-22T12:03:40Z,42.805,6.029,13.3015,4.60029,2470.287,2021-8-22T14:04:59Z
2021-08-22T12:06:43Z,42.805,6.029,13.3006,4.60023,2470.273,2021-8-22T14:08:02Z
2021-08-22T12:09:46Z,42.805,6.029,13.3001,4.60039,2470.287,2021-8-22T14:11:05Z
2021-08-22T12:12:49Z,42.805,6.029,13.3008,4.60049,2470.273,2021-8-22T14:14:08Z
2021-08-22T12:15:52Z,42.805,6.029,13.3027,4.60016,2470.287,2021-8-22T14:17:11Z
2021-08-22T12:18:56Z,42.805,6.029,13.3001,4.60019,2470.287,2021-8-22T14:20:15Z
2021-08-22T12:21:59Z,42.805,6.029,13.3009,4.60029,2470.287,2021-8-22T14:23:18Z
2021-08-22T12:25:02Z,42.805,6.029,13.3008,4.60021,2470.273,2021-8-22T14:26:21Z
2021-08-22T12:28:05Z,42.805,6.029,13.3008,4.60038,2470.264,2021-8-22T14:29:24Z
2021-08-22T12:31:08Z,42.805,6.029,13.3010,4.60033,2470.273,2021-8-22T14:32:27Z
2021-08-22T12:34:11Z,42.805,6.029,13.3011,4.60057,2470.25,2021-8-22T14:35:30Z
2021-08-22T12:37:14Z,42.805,6.029,13.3023,4.60029,2470.264,2021-8-22T14:38:33Z
2021-08-22T12:40:17Z,42.805,6.029,13.3006,4.60034,2470.25,2021-8-22T14:41:36Z
2021-08-22T12:43:21Z,42.805,6.029,13.3005,4.60034,2470.25,2021-8-22T14:44:40Z
2021-08-22T12:46:24Z,42.805,6.029,13.3011,4.60031,2470.273,2021-8-22T14:47:43Z
2021-08-22T12:49:27Z,42.805,6.029,13.3009,4.60022,2470.25,2021-8-22T14:50:46Z
2021-08-22T12:52:30Z,42.805,6.029,13.3024,4.60019,2470.264,2021-8-22T14:53:49Z
2021-08-22T12:55:33Z,42.805,6.029,13.2990,4.60019,2470.25,2021-8-22T14:56:52Z
2021-08-22T12:58:36Z,42.805,6.029,13.2992,4.60028,2470.264,2021-8-22T14:59:55Z
2021-08-22T13:01:39Z,42.805,6.029,13.2992,4.60029,2470.227,2021-8-22T15:02:58Z
2021-08-22T13:04:42Z,42.805,6.029,13.2991,4.60024,2470.287,2021-8-22T15:06:01Z
2021-08-22T13:07:46Z,42.805,6.029,13.2986,4.60031,2470.25,2021-8-22T15:09:05Z
2021-08-22T13:10:49Z,42.805,6.029,13.3006,4.60044,2470.287,2021-8-22T15:12:08Z
2021-08-22T13:13:52Z,42.805,6.029,13.2987,4.60031,2470.287,2021-8-22T15:15:11Z
2021-08-22T13:16:55Z,42.805,6.029,13.2989,4.60020,2470.31,2021-8-22T15:18:14Z
2021-08-22T13:19:58Z,42.805,6.029,13.3004,4.60029,2470.273,2021-8-22T15:21:17Z
2021-08-22T13:23:01Z,42.805,6.029,13.2994,4.60036,2470.273,2021-8-22T15:24:20Z
2021-08-22T13:26:04Z,42.805,6.029,13.3004,4.60027,2470.287,2021-8-22T15:27:23Z
2021-08-22T13:29:07Z,42.805,6.029,13.2996,4.60035,2470.287,2021-8-22T15:30:26Z
2021-08-22T13:32:11Z,42.805,6.029,13.3012,4.60033,2470.25,2021-8-22T15:33:30Z
2021-08-22T13:35:14Z,42.805,6.029,13.2990,4.60027,2470.287,2021-8-22T15:36:33Z
2021-08-22T13:38:17Z,42.805,6.029,13.3009,4.60027,2470.264,2021-8-22T15:39:36Z
2021-08-22T13:41:20Z,42.805,6.029,13.3007,4.60038,2470.273,2021-8-22T15:42:39Z
2021-08-22T13:44:23Z,42.805,6.029,13.3029,4.60024,2470.273,2021-8-22T15:45:42Z
2021-08-22T13:47:26Z,42.805,6.029,13.2991,4.60025,2470.25,2021-8-22T15:48:45Z
2021-08-22T13:50:29Z,42.805,6.029,13.2986,4.60017,2470.203,2021-8-22T15:51:48Z
2021-08-22T13:53:32Z,42.805,6.029,13.3008,4.60029,2470.273,2021-8-22T15:54:52Z
2021-08-22T13:56:36Z,42.805,6.029,13.2990,4.60034,2470.25,2021-8-22T15:57:55Z
2021-08-22T13:59:39Z,42.805,6.029,13.2998,4.60026,2470.264,2021-8-22T16:00:58Z
2021-08-22T14:02:42Z,42.805,6.029,13.2987,4.60031,2470.25,2021-8-22T16:04:01Z
2021-08-22T14:05:45Z,42.805,6.029,13.2990,4.60016,2470.287,2021-8-22T16:07:04Z
2021-08-22T14:08:48Z,42.805,6.029,13.2988,4.60021,2470.287,2021-8-22T16:10:07Z
2021-08-22T14:11:51Z,42.805,6.029,13.2988,4.60019,2470.264,2021-8-22T16:13:10Z
2021-08-22T14:14:54Z,42.805,6.029,13.2983,4.60011,2470.25,2021-8-22T16:16:13Z
2021-08-22T14:17:57Z,42.805,6.029,13.2982,4.60014,2470.287,2021-8-22T16:19:16Z
2021-08-22T14:21:01Z,42.805,6.029,13.2986,4.60017,2470.264,2021-8-22T16:22:20Z
2021-08-22T14:24:04Z,42.805,6.029,13.2983,4.60011,2470.273,2021-8-22T16:25:23Z
2021-08-22T14:27:07Z,42.805,6.029,13.2983,4.60014,2470.273,2021-8-22T16:28:26Z
2021-08-22T14:30:10Z,42.805,6.029,13.2984,4.60012,2470.273,2021-8-22T16:31:29Z
2021-08-22T14:33:13Z,42.805,6.029,13.2990,4.60016,2470.25,2021-8-22T16:34:32Z
2021-08-22T14:36:16Z,42.805,6.029,13.3024,4.60014,2470.25,2021-8-22T16:37:35Z
2021-08-22T14:39:19Z,42.805,6.029,13.2989,4.60036,2470.273,2021-8-22T16:40:38Z
2021-08-22T14:42:22Z,42.805,6.029,13.2990,4.60044,2470.297,2021-8-22T16:43:42Z
2021-08-22T14:45:26Z,42.805,6.029,13.2987,4.60011,2470.287,2021-8-22T16:46:45Z
2021-08-22T14:48:29Z,42.805,6.029,13.2982,4.60010,2470.287,2021-8-22T16:49:48Z
2021-08-22T14:51:32Z,42.805,6.029,13.2986,4.60019,2470.273,2021-8-22T16:52:51Z
2021-08-22T14:54:35Z,42.805,6.029,13.2985,4.60007,2470.283,2021-8-22T16:55:54Z
2021-08-22T14:57:38Z,42.805,6.029,13.2990,4.60011,2470.25,2021-8-22T16:58:57Z
2021-08-22T15:00:41Z,42.805,6.029,13.2982,4.60014,2470.297,2021-8-22T17:02:00Z
2021-08-22T15:03:44Z,42.805,6.029,13.2983,4.60007,2470.273,2021-8-22T17:05:03Z
2021-08-22T15:06:47Z,42.805,6.029,13.2983,4.60008,2470.31,2021-8-22T17:08:07Z
2021-08-22T15:09:51Z,42.805,6.029,13.2986,4.60006,2470.31,2021-8-22T17:11:10Z
2021-08-22T15:12:54Z,42.805,6.029,13.2991,4.60028,2470.31,2021-8-22T17:14:13Z